Theta_e
345 343 336 342 353 350 349 355 353 354 363 358 344 338 344 351 338 331 352 365 358 360 362 356 353 351 350 350 349 347 348 348 346 346 346 345 344 341 339 336 333 331 330 329 327 326 325 325 324 323 323 323 322 322 322 321 321 321 321 321 320 319 317 317 316 315 314 314 313 313 313 313 312 312 312 312 313 312 312 312 312 312 312 312 312 310 306
348 349 348 351 356 358 360 363 361 363 367 364 357 356 363 367 355 348 354 361 362 359 356 354 352 347 346 346 346 347 349 348 347 347 347 346 343 341 338 336 333 331 330 329 327 326 325 324 324 323 322 322 322 321 322 322 321 321 321 320 320 319 318 317 316 315 314 314 314 314 314 313 313 313 313 313 313 313 313 313 312 312 312 312 312 311 308
341 347 355 352 357 364 362 359 361 365 365 363 367 369 368 369 368 361 359 363 364 356 351 353 350 345 346 346 347 349 348 347 346 346 345 344 342 340 338 336 334 331 329 328 326 325 325 324 323 323 322 322 321 321 322 322 322 322 321 321 320 320 319 318 316 315 315 315 315 314 314 314 314 313 313 313 313 313 313 313 312 312 312 312 312 312 310
335 342 348 347 352 354 349 349 353 357 359 357 362 366 361 363 370 362 354 357 362 356 350 350 348 347 348 348 349 349 348 346 345 343 343 342 340 339 338 336 334 330 328 327 326 325 324 323 322 322 321 321 321 322 322 322 322 322 321 320 320 320 319 318 317 316 316 315 315 315 315 315 314 314 313 313 313 313 313 313 313 313 313 312 312 312 312
331 338 345 348 349 339 335 342 344 348 358 358 356 362 363 364 368 364 358 362 362 355 351 351 351 349 348 349 350 349 347 346 344 342 341 339 339 339 338 337 333 329 327 327 325 325 324 322 322 321 321 322 322 322 321 321 322 322 321 321 321 320 320 318 317 316 316 316 316 315 315 315 315 315 314 313 313 314 314 313 313 313 313 313 312 313 313
330 338 352 348 339 332 335 345 346 345 355 362 363 365 364 363 364 363 363 362 357 351 352 353 351 349 349 349 348 347 346 346 345 343 340 338 339 339 338 337 333 328 327 326 325 324 322 322 322 321 321 321 321 320 320 321 322 321 321 321 321 320 321 320 319 317 316 316 316 316 316 316 316 316 315 315 315 315 314 313 313 314 314 313 313 313 313
335 346 353 334 328 338 349 356 353 348 354 368 370 364 362 365 366 365 362 354 352 353 353 351 349 348 348 347 348 347 345 345 345 342 339 339 339 338 337 336 331 327 326 325 324 322 321 321 321 321 321 321 319 319 318 319 321 321 320 319 319 319 320 320 320 319 317 316 317 317 317 317 316 317 317 316 315 316 315 314 314 314 313 313 314 313 313
337 341 337 327 331 347 355 356 354 351 356 360 355 350 356 361 362 365 361 352 352 354 352 349 349 347 347 347 347 347 346 346 344 341 340 339 338 338 337 332 328 327 325 324 322 322 321 321 321 321 320 319 318 317 317 318 319 319 318 317 318 318 318 319 320 320 318 317 318 318 318 318 317 317 317 316 315 316 316 315 314 314 314 314 313 313 313
342 342 336 338 342 345 351 361 360 356 358 360 352 347 354 358 355 356 356 352 352 353 350 349 349 346 348 349 347 345 345 346 344 342 340 339 338 338 334 330 328 326 324 323 322 321 321 320 320 320 319 318 317 317 317 318 318 318 318 317 317 317 317 318 318 319 319 318 318 318 317 317 317 317 316 316 315 316 316 315 314 314 315 315 314 313 313
347 348 343 345 342 340 352 366 363 355 355 364 366 356 355 360 355 350 351 352 352 352 350 349 348 348 352 354 350 344 341 340 341 340 339 337 337 336 331 328 327 325 324 323 322 321 320 319 319 318 318 317 317 316 317 318 318 318 318 317 317 317 317 317 317 318 318 317 317 316 316 316 316 316 316 316 316 316 315 315 315 315 315 315 314 314 314
344 345 344 345 342 344 357 364 360 354 351 359 363 349 347 359 355 348 349 351 350 352 350 348 350 353 355 355 349 342 338 337 337 338 338 337 335 332 328 327 325 324 323 322 322 321 319 318 318 318 317 317 316 316 317 318 318 318 317 317 317 317 317 316 316 316 317 316 316 315 316 315 315 315 316 316 315 316 315 315 315 315 315 315 314 314 314
344 345 344 345 344 345 354 361 359 352 347 351 348 336 338 354 352 346 349 349 349 351 349 348 351 354 356 354 346 340 337 337 337 337 336 334 331 328 327 326 324 323 323 322 321 320 319 318 318 318 317 317 317 317 317 317 317 316 316 316 316 316 316 316 316 316 317 316 316 315 315 315 315 315 316 316 316 315 315 315 315 315 315 315 315 314 314
348 349 343 341 347 355 358 361 356 348 342 343 343 339 345 354 350 346 347 347 348 348 347 349 352 351 350 347 341 338 337 337 336 334 332 331 329 327 327 326 325 324 323 321 320 319 319 318 318 317 317 317 317 317 317 317 316 316 316 316 316 315 316 316 316 316 316 315 314 314 314 314 315 315 315 315 315 315 315 315 315 315 315 315 315 315 314
346 355 351 340 344 356 359 355 351 343 340 345 349 350 350 349 347 347 346 345 348 347 347 350 350 346 343 341 338 338 336 333 331 329 329 329 327 327 327 326 324 323 321 320 319 319 318 318 318 318 318 317 317 317 316 316 316 316 316 316 316 315 315 315 315 316 316 315 314 314 314 314 314 314 314 314 315 315 315 315 315 315 315 315 315 315 315
346 352 347 336 338 348 352 350 350 346 347 355 359 355 349 346 346 347 345 345 346 346 346 347 345 342 340 338 337 336 334 331 329 328 328 328 326 326 326 324 323 321 320 319 319 318 318 319 319 318 317 316 316 316 315 315 316 316 317 316 316 315 315 315 315 316 316 315 315 315 315 315 315 314 314 314 314 314 315 315 315 315 315 315 315 316 316
350 347 345 346 351 353 349 348 355 357 355 354 354 352 351 348 345 344 345 345 344 343 344 343 340 340 339 336 335 334 332 330 328 327 327 326 325 325 325 323 322 321 319 319 319 318 318 319 319 318 317 316 316 316 316 316 316 317 317 317 316 316 315 315 315 315 315 315 315 315 315 315 315 315 314 314 314 314 314 315 315 315 315 315 315 315 316
352 352 356 359 358 351 345 345 351 352 348 347 348 348 349 347 344 343 344 343 342 341 341 340 339 339 338 335 334 333 330 328 327 326 326 325 325 324 322 321 321 320 319 319 319 318 318 318 318 318 317 315 316 317 316 316 316 317 317 317 317 317 316 316 315 315 315 315 315 315 315 315 315 314 314 314 314 315 315 315 315 315 315 315 315 315 315
350 351 352 352 349 345 343 343 344 345 345 347 347 347 347 347 345 343 342 341 341 339 338 339 340 337 335 333 332 331 329 327 326 325 325 324 323 322 321 321 320 320 320 320 319 319 319 318 317 318 317 316 317 317 318 317 317 317 317 317 317 317 317 317 316 316 316 315 315 315 315 315 315 315 315 315 315 315 315 315 315 315 315 315 315 315 315
351 351 349 348 345 342 343 345 346 346 347 347 346 347 347 347 344 342 340 340 339 338 338 339 338 336 334 332 330 329 327 326 326 325 324 323 322 321 321 321 320 320 319 319 320 319 318 317 318 318 318 318 318 319 319 319 318 317 317 317 317 317 317 317 317 317 316 316 315 315 315 315 315 315 315 315 315 315 315 315 315 316 315 316 315 315 316
354 350 347 344 342 341 345 348 349 348 348 348 347 344 344 343 342 340 339 338 338 338 338 338 337 335 333 331 330 329 327 326 325 324 323 322 321 321 321 320 320 320 319 319 319 319 318 318 319 319 319 320 320 320 320 319 319 318 317 317 317 317 317 316 316 316 316 316 316 316 316 316 316 316 316 316 316 316 316 316 316 316 316 316 316 316 317
350 346 344 343 344 345 345 344 345 345 344 345 345 342 340 341 341 339 338 338 338 337 337 337 336 335 333 330 329 327 326 325 324 323 322 321 321 321 321 320 320 320 319 320 319 319 319 320 319 320 321 321 320 319 318 318 317 317 317 317 317 317 316 315 315 316 316 317 317 317 317 317 317 317 317 317 317 318 318 318 317 317 317 317 317 318 318
356 355 353 350 353 355 347 340 340 340 340 342 343 342 341 340 339 339 339 338 336 336 337 336 335 334 332 329 328 326 326 325 324 323 321 320 320 321 321 321 320 320 320 320 320 320 321 321 321 321 321 321 320 318 317 317 317 317 317 318 318 317 317 316 317 317 318 319 319 318 318 317 317 318 318 318 318 318 318 318 318 318 318 318 318 318 317
360 359 356 351 355 358 347 338 337 339 339 342 343 342 341 339 338 338 338 337 337 336 335 335 334 332 330 328 327 326 325 324 323 322 321 320 320 320 321 321 321 321 321 321 321 321 320 321 321 321 320 320 319 318 318 318 317 317 317 318 317 317 317 317 318 318 319 319 319 320 319 319 318 319 319 319 319 318 318 319 318 318 318 318 317 317 317
349 347 348 346 348 348 340 336 338 339 339 340 341 340 339 337 336 335 335 336 336 334 333 331 331 330 328 327 327 326 324 323 323 321 320 320 320 320 321 321 321 321 321 321 320 320 320 320 320 321 320 319 319 318 319 319 318 317 317 317 317 317 317 318 319 319 319 320 320 320 320 320 320 320 321 320 319 318 318 317 317 317 317 317 316 316 316
344 342 342 339 339 337 333 332 335 339 339 339 339 340 338 334 332 332 333 333 332 330 329 327 326 327 327 326 325 325 323 322 321 321 320 320 320 321 321 320 320 321 320 319 320 321 321 320 321 321 320 319 318 318 319 318 319 318 318 317 318 317 317 318 319 319 320 320 321 321 321 321 321 321 321 321 320 319 318 316 315 315 315 315 315 315 315
337 336 333 331 331 331 332 333 335 337 338 338 338 339 337 333 330 330 329 329 327 326 325 323 322 324 325 324 324 324 322 321 321 321 321 320 320 321 321 320 320 320 319 319 320 321 321 321 321 321 320 319 318 318 319 319 319 319 318 318 318 319 318 319 319 320 320 321 321 322 321 321 321 321 320 320 320 320 318 317 315 315 314 315 315 315 315
330 330 332 334 332 331 335 338 336 335 335 335 336 337 333 330 328 326 325 325 324 323 322 322 321 322 322 323 323 322 320 321 322 321 321 320 321 321 321 321 321 320 318 319 321 321 321 321 321 321 320 319 319 320 320 320 320 320 319 319 319 319 319 320 319 320 320 320 321 321 321 320 321 321 320 320 320 319 319 318 317 316 316 316 316 316 316
336 337 339 340 337 334 333 330 328 329 331 332 332 331 327 326 325 324 324 324 322 320 320 320 320 320 320 320 321 321 321 322 322 321 320 320 321 321 321 321 320 319 319 320 320 320 321 321 320 320 320 320 320 321 321 321 320 320 320 319 319 319 320 319 320 320 320 320 321 320 321 321 321 321 321 320 320 319 318 317 317 317 317 316 316 316 316
339 337 335 334 332 329 327 325 326 329 329 327 327 327 325 325 326 326 325 324 321 320 320 319 319 320 320 319 320 321 321 322 321 320 320 320 321 321 321 320 320 320 320 320 320 320 321 321 321 321 321 320 321 321 321 320 320 320 320 319 319 319 320 320 320 320 320 320 320 320 321 321 320 320 320 320 319 319 318 317 317 317 317 317 316 316 316
330 328 327 326 325 326 328 328 329 329 328 327 328 327 326 326 327 326 324 322 320 320 320 319 319 320 320 319 320 321 321 321 321 320 320 320 320 320 320 319 320 320 320 321 320 320 321 321 321 321 321 321 322 321 321 321 321 321 321 321 321 321 321 321 321 321 320 321 321 321 320 320 320 320 320 320 319 319 318 318 317 317 317 317 316 316 316
327 327 326 325 326 327 329 329 328 327 327 328 328 328 327 327 327 326 325 324 322 320 319 319 319 319 319 319 320 321 321 321 321 320 320 320 320 320 320 319 320 320 321 320 320 320 320 321 321 321 321 322 322 322 322 322 322 322 322 322 322 322 322 321 321 321 321 321 321 321 321 320 320 320 320 320 319 318 317 317 317 317 317 317 316 316 315
327 328 327 327 327 327 328 329 329 328 328 327 328 329 328 327 326 326 325 324 322 320 319 319 319 319 319 320 320 321 321 321 320 320 320 320 320 320 320 319 320 320 319 319 319 320 320 321 321 321 321 321 321 322 323 323 322 322 322 322 321 321 321 321 321 321 321 321 321 321 320 320 320 321 321 320 320 319 318 318 317 316 316 316 315 315 314
331 333 331 330 330 329 328 328 328 328 328 328 327 326 324 322 323 323 322 321 320 319 319 319 320 320 320 320 320 321 321 321 320 320 320 320 320 320 320 320 320 319 319 319 319 319 320 320 321 320 321 321 321 322 323 323 323 322 321 321 321 321 321 322 321 321 321 321 321 320 319 319 319 320 321 321 320 319 318 317 316 316 315 315 315 315 314
336 337 332 329 330 331 329 328 327 327 327 326 324 322 320 321 321 321 320 320 320 320 319 320 320 320 320 320 320 321 321 321 321 321 320 320 320 320 320 319 319 319 319 319 319 319 319 320 321 320 321 322 322 323 323 322 322 322 322 322 322 322 321 320 320 320 321 320 320 319 318 319 320 321 321 321 320 318 317 316 315 315 315 315 315 315 314
330 330 326 323 325 326 325 326 327 327 327 328 326 324 321 321 321 321 322 321 321 320 320 320 320 320 320 320 321 321 321 321 321 321 321 321 321 321 320 320 319 319 319 319 319 319 319 320 320 321 321 322 322 322 322 322 322 322 322 322 322 322 321 319 319 320 320 320 319 319 319 320 320 321 320 320 319 317 316 315 315 315 315 315 314 314 313
324 330 330 325 322 321 321 322 322 323 324 326 325 323 322 321 322 323 323 322 321 321 321 321 321 321 321 320 321 321 321 322 322 321 322 322 322 321 321 320 320 320 320 320 320 320 320 320 321 321 322 322 322 322 322 322 323 322 322 323 322 321 320 319 319 319 319 319 319 319 319 319 319 319 319 319 318 318 316 315 315 314 314 313 313 312 312
323 327 327 323 321 321 321 321 321 321 322 322 322 322 322 322 323 324 323 322 321 322 322 321 321 321 321 321 322 322 322 322 322 322 322 322 322 321 321 321 320 321 320 321 321 320 320 321 322 322 322 323 322 323 323 323 322 322 322 322 322 321 320 320 320 320 320 319 319 319 319 318 318 318 318 318 317 317 316 315 314 314 314 313 313 312 312
323 322 321 320 321 321 321 321 322 322 322 322 322 323 323 323 323 324 323 322 322 322 321 322 322 321 321 321 321 321 321 321 321 321 322 321 321 321 321 320 321 321 320 321 320 320 321 322 322 322 323 323 323 323 323 323 322 323 323 323 322 321 321 321 320 320 320 320 320 320 319 317 316 317 317 317 317 316 316 315 315 314 314 314 313 312 312
327 323 321 321 321 321 322 322 322 322 322 323 323 323 323 324 324 323 323 322 323 322 322 322 322 321 321 321 320 320 321 321 321 321 321 321 321 321 321 321 321 321 320 320 320 320 321 321 322 322 323 323 323 323 323 322 323 323 324 322 321 320 321 321 321 321 321 321 321 321 319 317 316 317 317 316 316 315 315 315 315 315 315 315 314 312 312
333 324 320 320 321 322 322 322 322 322 323 323 323 324 324 325 324 324 323 322 322 322 322 322 321 321 321 320 320 320 321 321 320 321 321 321 321 321 321 320 321 320 320 320 320 320 320 321 321 322 323 323 322 322 322 322 322 323 323 322 320 320 320 321 321 321 321 321 321 321 319 316 316 317 317 316 316 315 315 315 315 315 315 315 314 313 312
330 323 321 322 322 322 322 322 322 322 323 323 323 324 325 325 325 324 323 322 322 322 322 322 322 322 321 321 321 321 321 321 320 321 320 320 321 320 320 321 321 320 320 320 320 319 320 321 321 322 323 323 323 322 322 322 322 322 322 321 320 320 320 320 320 321 320 320 319 318 317 316 316 317 316 316 315 315 315 315 315 315 315 315 314 313 312
327 323 323 323 322 321 322 322 322 322 323 323 324 324 325 325 326 325 324 323 323 322 322 322 322 322 322 322 322 321 321 321 321 321 321 321 321 321 321 321 321 321 321 321 320 320 321 320 321 321 322 323 324 324 323 323 322 322 322 321 321 320 320 320 319 318 317 316 316 316 316 316 317 316 316 316 315 315 315 315 315 315 315 315 315 314 314
325 323 325 324 323 323 323 322 323 323 323 323 324 325 325 326 326 325 324 325 324 322 322 322 322 323 323 322 321 321 321 321 321 321 321 321 321 321 321 322 322 323 323 322 321 321 321 320 321 322 322 323 324 324 324 322 321 321 322 321 322 321 321 320 319 316 314 314 315 316 316 317 317 317 316 316 315 315 316 316 315 315 315 315 315 315 315
325 325 326 325 324 324 323 323 323 324 323 323 325 325 325 326 326 326 325 325 325 324 323 323 323 324 325 324 323 323 322 322 322 321 321 322 322 322 322 322 323 324 323 323 322 322 321 322 322 322 323 323 324 325 324 322 321 321 322 323 322 322 321 321 320 317 314 313 314 314 315 316 316 317 317 316 316 315 316 316 315 315 316 315 315 316 315
325 326 326 326 325 324 324 324 324 324 324 324 325 325 325 326 326 326 326 326 326 325 325 324 324 325 325 325 324 324 323 322 322 322 322 323 324 324 323 324 325 325 324 323 322 322 323 323 324 324 324 325 325 325 325 324 323 324 323 323 322 322 322 322 320 318 315 314 314 314 315 315 316 316 317 316 316 316 316 316 316 315 316 316 315 316 315
325 326 326 327 326 325 325 325 325 325 325 325 324 325 326 326 326 326 326 326 326 326 326 325 325 326 326 326 326 324 323 323 323 323 323 325 325 325 325 325 325 326 325 324 323 323 324 325 325 326 325 325 325 325 325 325 324 323 322 321 320 321 321 321 320 319 318 318 317 316 316 316 316 316 317 316 316 316 316 315 316 316 316 316 316 316 316
325 326 326 327 327 326 327 327 327 327 326 326 326 326 326 326 326 327 327 326 326 326 326 326 326 326 326 326 326 325 324 324 324 324 324 325 325 325 325 326 326 327 327 326 325 325 325 325 326 326 326 326 325 325 324 323 322 321 319 319 319 320 320 320 321 322 322 322 321 320 319 318 317 317 316 317 317 316 316 316 316 316 316 316 316 316 315
326 327 327 326 326 327 328 329 328 328 327 327 327 327 326 326 327 327 327 327 327 327 326 326 327 327 326 327 327 326 326 325 325 325 326 327 327 327 327 327 328 328 328 327 327 327 326 326 327 326 326 326 326 325 325 324 323 322 321 320 320 319 319 319 321 321 321 321 320 319 319 319 319 318 318 317 317 316 316 316 316 316 316 316 316 316 315
327 328 328 327 328 329 329 329 329 329 328 329 328 327 327 327 327 327 326 327 327 327 327 327 327 327 327 327 327 327 327 327 327 327 328 328 329 329 330 330 330 330 329 329 328 328 328 327 327 327 327 327 327 326 326 326 326 325 323 321 320 319 319 319 320 320 320 320 319 319 319 320 320 320 319 319 318 317 316 316 316 316 316 316 316 316 316
328 328 328 328 328 329 329 328 328 329 329 329 328 328 328 328 327 327 327 327 327 327 328 328 327 328 328 328 327 328 328 329 329 329 330 330 330 330 331 331 331 331 330 330 329 329 329 328 328 328 328 327 326 326 326 326 325 324 322 320 320 320 320 320 320 321 320 320 320 320 320 320 320 320 321 320 320 319 319 318 317 317 317 317 316 316 316
329 328 328 328 329 329 328 328 328 329 329 329 329 329 329 328 328 328 328 328 328 328 328 328 328 328 328 328 329 329 330 329 330 331 331 331 331 331 331 331 331 331 331 331 330 330 329 329 329 328 328 327 326 325 325 324 323 323 322 321 321 321 321 320 320 320 320 320 320 320 320 320 320 320 321 321 321 321 320 320 319 318 318 317 317 316 316
329 329 328 328 329 328 328 328 328 329 329 329 330 329 329 329 329 329 329 329 329 329 329 329 329 329 329 329 330 330 330 330 331 331 331 331 332 332 332 332 332 332 331 331 331 331 330 329 328 328 327 326 325 325 324 324 324 323 323 323 322 322 321 321 321 321 320 320 320 320 320 320 320 320 320 321 321 320 319 317 317 317 317 317 316 316 315
Wind_Speed
5 2 3 3 3 4 3 4 4 4 4 4 5 4 2 6 6 4 6 7 4 1 4 8 7 8 8 8 8 8 8 9 9 9 10 10 10 10 10 10 10 10 10 11 15 17 19 21 21 20 20 21 21 20 19 18 16 14 12 10 10 11 11 10 10 10 9 9 8 7 7 7 7 7 7 8 8 8 10 12 12 12 13 14 16 19 21
8 8 7 4 3 5 4 5 5 4 5 6 6 5 3 5 5 2 2 7 3 3 3 7 6 7 8 8 9 9 9 10 11 10 10 10 10 11 11 10 9 9 10 13 15 16 19 20 20 19 20 20 20 19 18 17 15 13 11 9 9 8 8 8 8 8 8 7 7 6 6 7 7 7 7 8 9 8 8 9 10 11 11 12 14 17 19
6 9 9 7 4 6 5 6 6 6 7 7 6 3 3 4 4 3 5 7 3 3 3 6 7 8 8 9 10 9 9 11 11 11 10 10 11 12 11 10 10 10 10 13 15 16 17 18 18 19 19 18 18 18 17 16 14 12 10 9 7 7 7 7 7 8 7 6 5 5 5 6 7 7 7 8 9 9 8 8 9 10 10 11 12 13 15
4 6 7 7 6 8 7 6 7 7 6 4 2 2 2 2 3 5 6 3 1 1 5 7 7 8 9 10 11 9 9 10 11 10 10 10 11 12 11 10 11 10 10 13 15 16 16 17 19 20 18 17 18 18 17 14 13 11 10 8 8 7 6 6 7 7 6 5 5 4 4 5 5 5 5 6 7 8 7 7 8 9 9 10 10 11 12
2 4 5 6 6 7 4 4 3 3 3 3 1 2 3 1 4 5 2 2 4 6 7 8 8 9 9 10 10 8 9 11 11 10 11 11 11 11 11 11 11 11 12 14 17 17 18 19 19 19 18 18 18 17 15 13 12 11 10 8 8 7 6 6 7 6 6 5 4 3 2 2 2 3 3 4 5 7 7 6 7 8 8 9 9 9 10
2 4 6 6 5 2 3 5 4 3 2 3 4 1 2 3 2 3 2 2 5 7 7 8 10 9 8 8 7 7 8 9 9 10 10 11 10 10 10 10 11 13 14 16 18 19 20 19 18 18 18 18 17 14 13 12 11 11 10 8 7 6 5 5 6 7 6 5 3 2 2 2 1 1 1 2 4 6 6 6 7 8 8 8 9 9 8
3 2 6 4 1 5 6 6 4 3 4 7 7 4 1 1 1 3 4 5 7 6 4 5 8 8 9 8 6 7 8 7 8 10 10 10 10 10 10 10 11 15 17 17 18 19 19 18 18 19 18 17 15 13 11 11 11 11 10 8 6 4 3 3 3 5 6 5 3 2 2 2 2 2 2 2 3 5 6 6 6 7 7 8 8 8 8
3 2 4 2 5 7 5 6 4 2 5 6 6 3 2 4 4 4 7 7 5 6 7 6 8 9 10 8 5 5 7 7 8 9 9 9 10 10 11 13 15 17 20 22 22 20 18 18 18 19 18 16 14 12 11 11 11 10 9 7 6 5 4 3 3 3 4 4 3 1 1 2 2 2 3 3 3 5 5 5 6 6 7 7 8 8 8
3 4 2 2 3 5 4 3 2 3 5 4 4 2 4 5 4 5 8 9 7 8 9 8 9 10 9 7 5 4 7 8 8 9 10 11 12 12 15 19 21 22 23 24 24 21 19 19 19 19 18 16 14 13 12 11 11 9 9 8 7 6 5 5 4 4 3 3 2 1 1 0 1 1 2 3 3 4 4 4 5 6 7 8 8 8 8
3 5 2 2 2 3 5 6 6 3 4 5 5 3 3 4 5 7 9 11 10 10 11 10 9 8 7 4 2 4 8 10 10 11 12 15 16 16 18 21 22 24 24 24 23 21 20 20 19 19 17 16 14 13 12 11 10 9 9 8 7 6 6 6 6 4 3 2 2 2 2 1 1 1 1 2 4 4 4 5 5 7 8 8 8 8 8
2 5 3 2 3 4 6 7 7 3 4 5 5 5 4 4 7 8 9 11 11 10 12 11 9 6 4 3 3 5 8 10 11 11 12 14 17 19 22 24 24 24 24 22 21 21 21 20 20 18 17 16 15 13 11 10 9 8 8 7 7 6 6 6 5 4 3 2 1 1 1 0 1 2 2 3 4 4 5 6 7 8 9 9 8 7 7
3 5 3 3 3 2 3 5 5 3 4 6 8 4 5 5 8 8 9 12 11 10 12 10 7 5 4 4 6 8 9 10 11 12 12 15 18 21 23 25 25 24 22 21 21 21 21 20 20 18 17 16 14 13 11 10 8 7 6 6 5 5 5 4 4 3 2 1 1 1 1 1 2 3 4 4 5 5 6 7 8 9 9 9 9 8 8
4 5 3 2 3 3 4 4 4 5 5 7 5 3 6 5 9 8 9 11 11 11 11 8 4 2 2 5 9 11 10 10 11 13 15 17 20 23 25 26 25 22 21 22 22 21 20 19 19 18 18 16 14 13 11 10 7 6 5 5 4 4 4 3 3 3 3 2 1 1 1 3 3 4 5 6 6 6 7 7 8 9 9 10 11 10 9
3 3 3 0 3 3 3 3 3 4 4 2 3 5 3 6 11 9 8 10 10 9 8 5 3 4 6 10 12 11 11 11 11 13 16 18 19 21 23 24 23 22 21 21 21 20 19 18 18 19 18 16 15 13 12 9 7 5 5 4 4 3 3 2 1 2 2 2 2 2 3 5 6 6 6 7 7 7 8 8 9 10 10 10 11 11 11
2 3 3 2 1 3 2 5 3 2 3 5 5 1 3 5 9 9 8 8 8 8 7 6 7 9 10 11 11 11 11 11 11 14 17 17 17 20 20 20 22 23 22 21 20 19 17 17 18 20 18 16 15 14 12 9 7 5 4 4 3 3 2 1 1 0 1 3 3 4 5 6 8 8 8 9 9 10 10 11 12 13 12 12 12 12 12
3 3 1 3 4 4 2 3 3 3 3 4 5 5 5 5 6 7 6 6 6 8 9 9 10 11 11 10 11 11 11 11 12 14 17 17 18 19 20 20 22 23 22 21 20 19 17 17 19 20 19 16 15 13 11 9 7 4 3 2 2 1 0 1 2 2 2 4 5 6 7 8 9 10 10 10 11 12 12 13 14 15 15 14 14 14 15
3 4 4 4 3 3 2 2 2 1 1 3 5 7 7 6 5 6 6 7 7 8 10 11 11 11 10 10 11 11 11 11 12 14 16 18 19 19 19 21 22 23 22 21 20 19 19 19 20 20 17 15 14 12 10 9 6 4 2 2 2 2 2 3 3 3 4 5 6 7 7 8 9 10 11 12 13 13 13 13 13 14 15 16 17 17 17
1 1 1 2 3 4 3 4 3 3 4 4 5 7 8 6 5 6 7 9 9 9 11 12 11 10 11 11 11 11 10 10 12 14 16 17 19 20 20 20 21 22 21 20 20 20 19 20 20 18 14 13 13 11 9 8 6 4 3 2 1 2 4 5 6 6 6 7 7 7 8 9 10 11 12 13 14 14 14 14 14 14 15 16 17 18 19
2 1 3 5 3 2 3 5 5 5 6 5 3 6 7 6 7 8 8 10 11 9 10 12 12 11 11 12 10 10 9 10 12 15 16 17 19 21 22 21 22 21 20 19 20 20 20 21 19 16 13 13 11 9 8 7 5 5 4 3 2 3 5 6 5 5 7 8 9 10 10 11 12 13 14 14 15 16 16 16 16 16 16 16 17 18 19
2 2 5 5 2 1 4 5 4 3 5 5 5 5 7 8 8 8 9 10 11 9 8 11 13 12 11 12 11 9 8 9 11 14 16 17 18 20 21 22 22 22 21 20 20 21 21 20 18 15 14 12 10 9 8 7 7 6 5 5 4 3 5 5 3 3 5 7 9 10 11 12 12 12 12 13 15 16 16 16 16 16 16 17 18 18 19
2 1 3 3 3 5 6 5 3 1 3 6 7 7 9 10 10 9 9 8 9 10 11 11 13 12 10 10 12 11 8 8 11 14 17 18 19 20 21 22 22 22 21 21 21 21 20 19 17 16 14 12 10 9 8 8 8 8 6 5 4 2 3 3 2 2 3 5 7 9 10 10 10 10 10 12 13 15 15 14 15 16 16 17 17 17 18
0 3 4 2 3 2 2 1 2 2 4 8 10 8 9 11 11 11 10 7 7 10 14 14 13 12 9 10 12 12 10 11 14 17 18 18 18 20 21 21 21 22 22 21 21 19 18 17 18 17 14 12 10 9 8 8 8 8 7 6 5 4 3 2 2 2 3 5 7 8 9 10 10 11 11 11 12 14 14 13 12 13 14 15 15 15 16
3 6 6 5 4 3 3 3 4 3 4 8 10 9 9 11 11 11 13 11 8 8 10 14 16 13 11 13 14 11 11 16 19 21 22 21 20 20 21 21 21 21 21 21 20 18 16 16 17 17 15 12 11 10 9 8 7 7 7 7 6 6 5 4 3 4 4 5 7 9 10 11 12 13 13 13 11 12 13 12 10 10 10 12 12 13 14
1 2 5 5 4 3 3 4 5 4 4 7 9 8 9 9 9 10 12 12 12 10 8 10 16 17 16 17 16 13 13 16 20 21 22 22 22 22 22 22 21 21 21 21 19 18 17 16 16 16 14 12 11 10 9 8 7 6 6 7 7 7 7 6 6 5 6 6 7 9 10 11 12 13 15 15 14 13 11 10 9 8 8 9 10 11 13
2 2 4 4 4 5 5 5 5 4 3 6 8 8 8 10 10 11 11 10 13 15 11 8 12 18 20 20 18 16 17 18 20 21 20 18 19 21 21 21 22 21 21 21 19 18 17 16 15 14 13 11 11 9 8 8 7 7 7 6 6 6 7 7 7 7 7 8 9 10 10 11 12 13 14 15 15 15 13 10 8 7 7 7 10 12 13
5 7 7 7 6 6 5 5 5 4 4 7 8 7 9 11 12 12 12 12 13 16 16 14 13 16 20 21 20 19 19 19 19 21 20 17 17 20 21 22 23 22 21 20 18 17 17 15 14 13 13 12 11 9 8 8 8 8 8 7 6 6 7 8 9 9 9 10 11 11 12 12 12 13 14 14 15 16 15 13 11 9 9 9 10 12 13
7 8 9 8 5 3 3 3 4 5 6 8 8 8 11 15 15 14 13 13 13 14 16 18 18 16 15 18 20 19 19 19 19 18 19 19 20 22 24 25 24 22 21 19 17 16 16 14 13 14 14 13 11 9 8 9 9 10 9 9 9 9 9 10 10 11 11 12 13 13 13 13 13 14 14 14 14 14 15 15 15 14 14 14 14 14 14
3 2 3 5 6 4 2 4 6 8 8 8 10 12 14 15 14 12 11 11 12 13 14 17 20 19 16 16 18 18 18 18 18 17 18 21 23 25 25 25 23 22 21 19 18 17 15 14 14 15 14 12 10 10 9 10 11 11 11 11 11 11 11 10 11 11 12 13 13 14 15 15 14 14 14 14 14 14 15 16 17 18 19 19 19 18 17
3 3 4 6 8 8 7 7 8 9 8 9 11 13 14 12 10 8 7 9 11 12 11 13 17 20 20 19 20 18 17 17 18 20 22 24 24 24 24 24 24 22 21 19 18 18 17 16 16 16 13 10 10 11 10 9 9 10 10 10 11 11 11 10 11 12 14 14 15 15 15 15 14 14 14 14 15 15 16 18 19 20 22 22 22 21 19
4 5 7 8 8 9 9 8 8 8 8 8 9 9 9 11 9 7 7 8 9 9 11 14 16 17 19 21 21 22 22 21 22 24 25 24 23 23 23 23 20 18 18 19 19 19 18 18 18 16 13 10 11 12 12 11 10 9 9 9 11 11 11 12 13 14 15 16 16 16 16 14 13 13 15 16 16 16 18 19 20 21 22 22 22 22 20
7 7 9 8 8 9 9 7 7 7 6 7 9 8 7 8 9 8 7 7 7 8 12 16 16 16 19 22 24 25 25 25 24 24 24 23 23 22 22 23 21 19 19 21 20 19 19 18 18 17 14 11 11 12 12 11 11 10 10 10 11 11 11 12 13 15 16 17 17 17 16 14 13 13 15 16 16 17 18 20 21 22 22 22 22 21 18
11 10 9 8 7 8 8 6 6 7 6 6 9 9 7 8 9 9 8 7 9 12 14 15 16 19 22 23 23 23 22 21 22 21 21 21 22 21 22 23 24 22 21 21 20 19 20 19 18 16 13 12 12 13 12 12 12 12 11 11 11 11 11 12 13 15 16 16 17 17 15 14 14 14 15 16 17 18 18 19 20 21 21 21 21 19 17
12 8 6 6 6 7 6 4 5 7 6 6 7 7 7 8 9 9 9 10 12 14 15 16 19 22 22 22 21 19 18 16 15 15 16 19 21 22 22 23 23 22 21 20 19 19 20 20 18 15 12 11 12 13 12 13 13 13 13 12 12 13 14 14 15 15 16 16 16 15 15 14 14 15 16 16 17 17 17 17 18 18 18 18 18 17 15
10 8 9 10 9 9 8 6 5 5 5 5 5 5 7 9 10 11 12 13 13 14 16 18 19 20 20 20 19 18 16 13 11 13 17 19 21 23 24 24 23 23 21 20 19 20 20 19 17 14 11 10 11 12 13 13 14 14 14 14 14 15 15 15 15 15 15 15 15 14 14 14 15 16 16 17 16 16 15 15 16 18 18 18 17 15 13
7 7 8 8 8 9 10 9 8 7 7 6 5 6 9 12 13 14 15 16 17 18 19 19 18 19 19 18 17 17 17 16 16 18 21 22 22 23 23 22 21 21 20 20 21 20 19 18 16 13 11 11 11 12 13 13 14 15 15 15 15 15 15 15 14 14 14 13 13 14 13 13 15 16 16 17 17 16 15 15 16 16 16 14 12 11 11
11 9 7 6 8 11 11 10 10 10 9 8 8 8 10 13 15 16 18 18 19 19 20 19 18 18 18 18 18 19 20 21 21 21 21 21 20 20 20 20 20 19 19 20 21 20 18 17 16 13 12 12 12 13 13 14 15 16 16 16 16 16 16 16 15 14 13 13 13 13 13 13 15 16 17 18 18 17 15 14 15 14 13 11 10 9 10
12 12 8 7 10 13 12 13 15 14 12 11 11 12 13 14 16 17 17 17 17 19 20 20 19 19 19 21 22 22 23 23 22 20 20 19 17 16 16 17 18 17 17 18 20 18 17 16 15 14 14 14 14 14 14 14 15 16 17 17 17 17 16 16 15 14 14 14 13 13 13 15 17 18 18 18 18 16 14 14 14 13 12 11 11 10 11
11 12 12 12 14 15 15 16 18 17 15 12 12 13 15 17 16 16 17 17 18 20 21 21 21 20 20 19 18 18 19 19 18 18 18 16 15 15 15 16 17 17 17 17 17 17 16 16 16 15 16 16 16 15 15 15 16 17 17 16 16 15 15 15 14 13 13 13 13 14 16 17 18 19 18 18 17 15 13 14 14 14 14 14 13 12 12
8 9 11 13 15 15 15 15 15 16 17 15 13 12 13 15 16 16 17 17 18 20 21 20 19 17 16 15 14 15 16 17 17 17 17 16 16 17 17 17 19 19 17 16 16 15 15 15 15 16 16 16 16 16 16 15 16 17 17 15 14 14 14 14 13 14 14 15 16 17 19 20 20 19 18 17 16 15 14 15 15 15 16 16 15 14 13
6 7 11 13 13 13 13 13 14 15 17 18 17 16 16 16 16 16 16 16 18 20 21 21 18 16 16 16 16 16 17 18 18 18 18 17 17 16 16 17 19 19 18 18 17 16 15 15 15 15 15 15 15 14 14 14 14 15 15 15 14 14 14 15 15 17 18 18 18 20 21 21 21 19 17 17 17 17 16 16 16 16 17 17 16 15 14
6 9 11 12 13 13 14 14 14 15 16 16 16 18 19 20 20 19 18 19 20 20 21 21 20 18 18 19 19 19 19 19 19 19 18 17 17 15 14 17 19 20 19 20 20 19 18 17 17 16 15 14 15 15 15 14 15 15 15 15 15 15 16 16 17 17 18 18 19 20 21 21 21 20 18 17 18 19 19 18 18 18 18 17 16 15 14
8 10 10 10 10 12 13 13 13 14 15 16 16 17 18 21 22 21 21 22 22 21 21 21 20 19 18 19 19 18 18 19 19 19 19 19 18 17 16 17 19 19 19 21 22 22 21 21 20 19 18 16 16 16 16 16 16 16 15 15 16 16 16 16 16 16 17 17 18 20 21 21 20 19 18 18 19 20 20 20 21 21 20 19 17 16 15
10 11 10 9 10 11 12 12 12 11 13 15 17 18 19 21 21 19 19 20 21 21 22 21 18 16 16 17 17 16 16 17 18 18 19 20 21 20 19 20 21 20 19 20 21 21 22 22 22 21 20 19 18 17 15 15 15 16 16 17 17 18 18 18 17 16 16 17 19 20 21 21 21 21 21 21 21 21 21 22 22 23 23 22 20 19 17
12 12 12 12 12 12 12 12 11 11 11 13 15 17 18 20 19 18 19 21 21 21 21 21 19 16 15 16 17 17 17 18 18 18 18 17 18 20 21 22 21 20 20 19 18 18 18 19 19 20 20 19 19 17 16 15 16 16 17 18 19 20 19 18 17 16 17 18 19 20 21 22 23 24 24 24 23 23 23 24 24 24 24 24 24 23 21
14 14 15 14 14 14 13 13 12 10 9 10 11 13 16 18 19 19 20 20 21 21 22 22 21 20 18 18 18 18 19 19 19 18 16 13 13 17 21 20 19 17 17 18 17 16 15 15 16 17 18 18 18 18 18 18 17 18 19 20 21 20 19 18 17 17 18 18 19 19 20 21 22 23 25 26 26 26 26 26 26 26 27 27 27 26 25
14 15 16 16 15 13 13 12 10 8 7 7 8 10 14 17 19 19 19 19 20 20 21 22 23 22 21 20 19 18 18 18 18 18 18 17 17 19 19 17 15 15 15 17 18 18 16 16 16 17 16 17 17 18 18 18 18 18 19 20 20 19 18 18 18 19 19 19 20 20 20 20 21 22 23 25 26 28 29 29 30 30 30 30 30 30 29
14 14 14 14 13 12 11 10 8 7 8 7 7 10 13 16 18 19 19 18 18 18 19 21 22 22 21 21 20 19 18 18 18 19 20 20 19 19 18 17 15 14 14 15 17 18 18 18 18 17 16 16 16 16 16 16 17 18 19 19 19 19 20 20 21 21 21 22 23 23 22 22 22 22 23 23 25 27 29 30 31 32 32 33 33 33 31
16 15 15 14 13 12 12 11 10 9 9 8 8 10 13 16 17 17 17 17 17 17 17 18 20 21 21 20 19 18 18 17 16 15 16 15 14 15 16 16 15 15 14 15 16 16 17 17 18 18 17 17 17 17 18 18 18 19 20 21 22 22 22 23 23 22 22 22 23 24 24 24 24 24 24 24 24 25 27 29 30 32 33 34 34 33 32
16 16 15 14 14 13 13 11 9 8 7 6 7 8 11 12 13 14 15 15 15 15 16 16 17 18 19 18 17 17 16 16 15 15 14 13 12 13 13 13 13 14 15 15 16 16 16 17 17 17 17 18 19 20 21 21 21 21 21 23 24 24 24 25 25 25 24 24 25 26 28 29 28 27 26 26 26 26 28 29 30 31 32 33 34 33 32
14 14 14 14 14 14 12 10 8 7 6 6 6 8 10 11 11 11 12 13 13 13 13 13 13 14 15 15 16 15 14 14 15 15 14 14 14 15 15 14 14 14 14 14 15 16 16 16 17 17 17 17 17 18 19 20 21 22 23 24 25 25 25 26 27 28 29 29 29 29 30 30 30 29 28 27 27 28 28 29 30 31 31 32 32 31 31
15 15 15 16 15 14 11 8 6 6 5 6 8 10 11 11 11 10 10 10 10 10 11 11 12 13 14 15 15 15 15 14 15 15 15 15 15 15 15 16 16 15 14 14 15 15 15 16 17 17 16 16 15 16 16 18 19 21 24 25 25 25 26 27 29 30 30 31 31 30 30 29 29 29 28 26 26 27 27 27 28 29 29 28 27 27 26
14 14 15 14 13 11 9 7 6 5 5 7 10 12 11 10 10 9 9 10 11 11 12 13 13 14 15 15 16 16 16 16 16 16 16 16 16 16 16 16 16 16 16 16 15 15 15 16 16 16 16 16 16 17 18 19 21 23 25 25 26 26 28 29 30 31 31 32 31 31 29 28 28 28 28 26 25 25 25 26 27 28 28 27 26 26 25
Wind_Direction
344 353 295 286 99 102 82 60 28 354 22 61 97 110 120 114 123 240 238 164 155 251 157 159 164 153 149 146 141 146 144 130 123 122 120 120 117 112 111 109 109 115 117 116 116 117 119 122 126 132 138 143 147 148 148 146 141 137 131 129 130 125 117 109 103 102 102 98 92 88 82 72 62 55 45 36 33 32 30 34 38 35 31 30 30 34 41
7 11 354 329 102 98 53 41 31 21 57 82 98 111 105 92 98 249 174 120 77 346 157 156 148 141 141 140 143 145 137 128 126 126 124 123 119 115 115 112 112 116 118 120 121 121 123 127 131 135 139 143 148 149 148 146 143 142 140 134 132 128 124 121 120 119 116 109 101 90 80 73 63 53 40 31 33 31 27 31 35 35 31 28 30 34 38
357 359 10 4 46 94 78 40 29 37 52 57 57 55 48 63 67 49 84 92 38 332 140 127 121 128 134 143 150 145 133 130 128 126 126 125 122 123 123 120 118 120 122 123 124 125 130 135 137 138 140 145 148 148 146 145 145 147 146 140 138 142 142 143 141 137 129 119 111 98 86 77 66 55 42 33 37 39 34 30 30 31 27 23 25 29 33
334 344 19 7 20 70 69 29 13 19 35 49 28 4 19 105 122 87 76 94 236 187 123 116 124 136 141 149 151 140 134 135 132 132 133 129 127 129 130 130 127 127 131 132 131 133 138 142 143 143 146 149 149 146 145 146 148 152 151 145 149 159 164 167 163 150 142 139 130 114 97 87 75 63 45 34 35 35 31 25 20 21 19 15 16 20 24
279 319 7 2 20 54 39 325 332 359 40 89 98 5 20 61 130 122 126 221 195 153 137 132 140 149 153 155 151 141 142 143 138 137 137 134 134 134 135 136 133 134 141 140 138 141 147 150 151 150 150 147 145 144 146 150 154 154 150 146 153 167 183 196 191 174 162 158 149 140 126 107 83 64 44 27 19 13 11 9 5 5 5 3 3 5 10
212 302 359 19 34 68 238 257 252 233 189 130 127 86 3 356 53 110 136 162 151 152 155 152 152 154 151 146 143 138 143 147 141 137 136 136 137 134 134 135 133 137 141 139 141 148 153 153 153 152 149 144 143 145 151 157 159 154 146 147 156 168 188 205 206 200 192 178 163 173 201 212 212 38 11 352 353 354 353 353 352 350 349 347 346 348 351
155 329 21 48 219 237 252 290 294 217 159 126 117 99 4 312 81 102 113 130 145 143 130 131 133 130 127 123 123 132 141 145 134 130 135 137 136 134 132 130 135 140 140 140 146 154 156 153 151 151 149 147 148 153 158 162 160 152 146 151 157 157 160 164 180 200 203 199 197 212 240 245 246 269 291 300 321 332 337 343 343 342 341 339 337 336 335
141 67 57 156 240 263 284 325 328 142 118 109 103 70 301 222 192 160 136 133 131 111 104 111 114 117 118 104 81 111 135 137 132 132 137 136 136 140 140 139 142 146 146 148 153 157 156 153 152 152 152 153 156 158 157 156 154 151 151 153 152 141 130 121 123 159 189 203 213 226 272 264 255 263 268 272 301 319 326 334 335 336 339 338 337 337 334
138 122 145 252 307 308 291 294 263 166 142 159 150 141 249 228 187 160 141 132 124 114 113 117 116 114 111 94 61 77 111 118 123 127 130 132 135 139 142 144 148 151 152 152 154 156 155 154 154 154 157 160 159 155 151 149 149 153 154 151 149 142 130 124 127 142 169 191 189 142 83 22 302 274 258 258 287 311 327 332 332 332 333 333 331 331 334
117 106 84 358 6 292 250 234 240 209 157 170 145 119 270 238 164 157 148 136 133 128 125 127 127 118 113 114 104 99 106 107 107 114 124 131 136 138 139 143 147 151 153 153 154 156 155 154 155 158 161 163 158 152 151 150 152 158 159 157 157 153 142 136 138 146 156 155 131 115 100 69 42 360 295 282 293 305 313 318 327 330 330 331 327 321 325
134 117 123 175 195 243 242 231 251 253 163 151 101 59 308 245 163 153 147 140 142 141 137 140 139 128 132 163 157 130 123 117 114 122 126 128 136 141 142 144 147 150 152 152 154 157 156 155 158 162 165 163 156 153 154 155 160 165 166 166 165 162 159 156 158 162 158 152 145 132 126 359 334 317 305 308 312 310 308 312 319 322 322 325 325 317 314
153 127 139 212 216 240 252 247 254 222 144 101 77 52 285 231 161 154 153 148 147 145 144 147 149 149 170 182 155 139 134 126 125 133 136 134 139 141 142 144 147 150 151 152 156 159 159 158 161 165 166 162 158 156 159 163 167 164 158 157 158 162 169 175 185 193 192 190 193 193 262 284 296 302 303 309 310 307 309 311 313 316 315 315 317 315 309
139 125 137 243 251 238 238 238 219 175 112 69 83 194 239 188 153 156 155 150 150 151 152 155 155 155 145 129 128 128 126 121 120 126 133 138 140 141 143 147 151 153 154 156 159 162 161 161 163 166 166 164 160 161 165 168 165 154 147 148 149 154 157 161 181 196 200 198 195 238 293 298 301 305 312 318 316 311 311 310 310 314 315 313 312 312 310
132 128 123 283 274 239 193 162 168 148 108 100 207 222 211 152 149 149 145 148 154 151 144 134 115 111 111 116 122 123 122 120 118 122 130 135 139 142 146 150 153 154 154 158 161 161 162 164 168 169 169 165 163 165 168 165 153 144 148 152 149 148 143 132 134 168 195 212 235 277 294 304 306 306 311 315 315 313 310 309 310 311 312 312 310 308 308
117 76 77 98 227 237 168 118 117 129 146 192 205 170 78 124 140 137 136 147 153 142 125 107 110 116 116 116 119 121 122 123 125 131 137 139 142 145 146 150 156 155 154 159 162 161 164 168 170 172 171 165 163 166 166 157 146 142 153 160 156 144 135 157 185 195 237 254 268 279 291 303 305 305 309 310 310 309 304 302 303 303 305 308 306 305 308
119 106 158 195 211 248 269 108 151 214 214 192 172 131 108 119 127 129 134 139 142 136 127 120 123 126 124 122 124 127 130 132 134 138 141 142 143 146 147 152 158 158 157 160 162 163 167 170 172 175 172 162 162 168 164 156 152 150 157 176 183 174 173 224 233 252 268 274 280 283 290 298 299 301 306 309 310 311 307 300 296 295 299 303 303 304 307
159 170 213 235 241 269 298 98 154 214 93 113 131 126 125 131 134 136 134 128 125 127 125 125 129 132 130 128 132 136 136 137 138 140 143 144 145 147 149 154 160 162 162 163 165 167 171 172 174 177 173 164 166 170 165 160 160 162 175 205 226 260 280 275 276 282 281 283 286 288 291 294 296 300 304 306 310 313 314 310 303 297 298 301 303 304 306
208 140 317 322 342 342 3 58 73 62 68 87 112 116 120 130 133 134 136 134 136 136 131 129 133 137 135 133 135 137 135 135 137 138 140 143 145 146 149 154 161 163 163 166 169 171 174 176 177 179 177 171 169 169 166 161 164 177 196 207 232 282 293 292 290 287 285 285 286 288 293 294 295 300 303 305 308 310 311 313 311 307 304 303 304 306 307
73 51 337 335 340 342 22 53 57 54 55 50 72 113 127 129 124 127 132 132 134 137 135 133 134 137 137 134 134 136 136 137 142 143 145 147 150 152 155 159 163 164 164 166 169 172 176 180 180 178 178 176 173 172 171 168 177 199 210 212 236 297 313 308 293 276 277 285 288 291 297 299 298 297 297 299 304 307 308 309 310 310 310 308 307 309 310
107 212 273 299 312 28 43 56 66 77 80 66 57 88 110 110 110 119 127 130 134 135 134 134 135 137 140 140 139 139 139 141 146 149 150 152 154 156 159 163 165 167 168 168 170 173 177 180 180 178 179 180 180 181 181 182 192 205 212 215 234 285 314 314 298 267 275 291 297 300 305 308 307 303 298 299 304 306 306 307 307 307 308 309 311 313 314
50 242 265 302 21 27 17 27 45 77 117 106 93 94 104 107 110 114 117 125 136 138 138 138 137 137 142 143 140 139 141 145 150 154 157 158 160 161 164 167 170 172 172 172 173 176 179 180 181 181 183 186 187 183 182 188 196 198 200 206 218 255 292 300 299 281 286 302 310 310 311 314 316 315 311 309 308 307 307 308 309 310 310 311 314 317 315
94 221 217 185 111 89 282 274 99 132 148 122 112 114 115 117 124 125 117 109 115 131 141 144 139 137 144 149 145 143 149 154 157 159 161 161 162 164 166 170 174 176 176 176 177 179 182 184 186 186 188 191 190 183 181 190 201 204 208 214 220 230 244 258 273 277 288 308 314 312 311 313 314 316 318 318 314 311 313 315 314 313 311 311 315 319 317
224 224 198 167 134 147 212 191 130 150 161 129 123 131 131 130 138 137 129 125 121 126 141 147 145 142 146 150 149 147 154 161 163 165 167 167 166 168 170 172 175 178 178 179 180 182 184 188 190 191 193 194 191 188 189 197 208 215 219 225 232 236 239 248 260 268 283 301 307 308 310 312 313 317 323 326 323 320 322 325 321 313 308 310 319 325 322
214 220 170 152 129 124 157 147 127 140 152 129 124 129 131 134 141 139 136 138 139 138 142 151 152 150 147 153 156 153 154 163 167 169 172 172 170 172 176 177 178 179 180 182 184 185 187 189 189 191 195 196 194 194 200 210 219 226 227 232 239 244 244 250 261 271 284 301 310 313 315 317 319 322 325 328 327 328 332 334 329 320 316 320 331 337 335
115 134 133 123 108 106 112 108 96 94 116 126 125 128 135 139 141 141 139 139 143 145 144 147 157 156 152 154 159 157 156 165 170 171 172 173 172 175 179 182 185 186 186 188 190 191 192 192 190 193 197 195 192 197 209 220 229 234 232 233 243 249 249 254 268 279 286 297 307 312 315 319 322 324 325 325 325 328 333 337 334 327 326 332 337 340 341
125 124 101 79 76 89 94 94 92 88 102 118 120 123 132 134 134 134 135 137 145 150 148 147 155 161 158 157 160 161 161 164 169 171 171 171 174 178 183 189 193 194 193 194 195 197 199 196 194 200 204 199 196 205 218 228 234 236 234 236 247 258 260 267 279 287 291 297 304 308 311 315 319 320 322 323 323 322 322 325 326 323 322 326 329 330 333
130 127 107 90 82 69 63 100 134 130 117 116 117 116 120 122 119 113 113 120 132 143 147 148 148 150 153 156 158 159 160 161 165 171 174 175 181 188 193 196 199 199 199 199 201 203 205 203 202 208 211 207 206 217 230 237 239 240 241 245 252 261 269 275 282 288 293 297 302 306 309 313 316 317 318 320 318 315 312 312 311 310 309 311 314 315 314
110 87 85 118 149 156 115 103 118 115 106 111 120 121 117 116 114 112 111 115 121 128 137 146 146 144 146 151 153 154 158 162 166 173 180 186 192 196 198 199 201 202 203 204 206 208 209 210 212 216 216 214 217 226 235 241 245 246 247 251 256 263 270 276 281 286 290 294 300 305 308 311 312 312 312 312 310 307 305 302 301 301 301 303 307 309 306
36 27 54 95 124 127 113 99 98 100 103 113 121 123 123 121 118 118 123 127 129 129 133 143 149 149 150 153 156 157 159 165 172 180 189 194 197 198 199 200 202 204 205 207 208 210 212 215 218 220 220 220 224 228 232 237 243 246 248 251 256 263 269 276 281 285 290 295 301 306 309 310 307 305 305 304 303 302 300 299 298 299 300 304 308 308 307
46 71 86 94 104 110 108 105 105 110 117 121 121 123 129 131 128 129 135 137 137 139 141 144 148 151 153 158 163 167 169 175 182 188 193 196 198 198 198 197 195 197 204 209 211 213 216 219 222 224 226 225 224 226 230 235 240 247 252 256 260 265 270 276 281 286 292 298 302 307 311 308 302 298 298 298 300 301 300 300 300 300 301 305 307 305 304
77 73 84 90 94 100 103 105 110 114 119 124 125 121 121 126 131 139 143 140 140 146 148 148 151 157 164 169 173 174 176 181 186 190 192 194 195 196 197 195 193 197 206 213 216 218 221 224 228 233 237 233 224 224 230 235 240 249 258 265 269 272 274 276 280 285 291 295 300 305 307 303 297 295 295 296 298 301 301 301 301 302 303 306 307 305 303
86 68 69 74 78 89 99 109 117 118 123 133 136 137 140 144 147 150 153 155 154 152 152 155 162 170 175 176 177 178 180 183 186 188 189 190 193 196 199 199 201 205 211 216 220 222 224 228 234 240 243 236 229 229 234 237 240 248 258 267 273 276 276 278 281 286 290 293 296 298 298 296 294 294 295 297 299 300 301 301 303 305 308 310 309 309 308
105 94 95 102 98 99 109 128 132 131 136 144 144 144 146 148 149 153 155 154 153 156 163 170 175 177 178 177 178 179 179 178 181 188 193 195 198 201 204 206 209 212 216 220 223 226 228 232 238 244 244 236 231 233 236 238 241 246 254 262 269 273 277 281 283 285 287 289 290 292 292 290 288 288 292 297 300 299 301 305 308 311 313 310 307 306 307
138 155 163 160 150 144 150 158 151 133 124 125 132 136 139 144 149 151 151 151 157 171 179 179 177 176 175 175 178 178 174 171 178 193 201 204 206 208 210 212 215 218 221 226 229 231 234 237 241 246 244 237 234 235 237 241 246 249 255 263 269 273 278 283 285 284 282 281 284 290 290 286 283 284 290 296 296 296 300 307 311 311 309 303 299 300 304
115 126 138 142 142 146 149 151 152 147 136 134 145 152 154 157 157 155 158 166 175 181 182 178 176 176 175 174 175 177 180 186 195 200 204 208 211 212 213 214 218 221 225 229 233 236 238 238 241 246 248 242 238 240 241 245 251 256 261 268 271 273 278 284 286 285 281 278 281 287 287 284 283 286 291 293 289 286 292 301 305 305 302 296 295 305 314
114 115 114 114 127 137 140 142 148 153 150 151 160 164 164 166 164 164 171 178 180 180 178 175 173 173 174 176 181 187 195 202 206 207 210 213 213 213 213 214 216 219 223 229 235 238 238 238 240 244 245 240 238 241 244 251 258 262 266 269 270 272 276 280 281 279 276 275 279 283 283 283 284 287 291 290 282 277 283 294 297 295 292 289 292 304 313
125 128 130 131 136 141 145 151 157 160 158 160 164 166 169 173 173 173 175 178 177 177 177 174 173 177 183 190 195 199 203 208 211 213 216 218 216 211 208 208 211 214 219 229 234 233 232 234 236 238 240 242 243 245 248 253 258 262 265 268 270 271 273 275 274 271 268 270 276 281 283 284 285 286 288 287 278 273 279 288 287 283 284 287 288 292 299
119 126 136 146 151 154 160 166 168 166 162 164 171 175 175 176 176 174 174 177 180 181 181 181 183 187 191 195 199 203 207 210 212 212 213 212 207 201 200 203 209 212 218 228 234 232 230 233 234 235 240 245 247 249 251 254 257 262 268 272 272 272 274 276 275 270 267 269 275 279 282 283 283 284 286 284 276 271 276 280 278 276 281 283 283 285 291
112 121 137 148 156 161 165 170 174 174 173 173 175 177 176 177 176 175 175 178 181 182 182 182 184 187 187 190 195 202 206 207 206 204 202 199 198 200 205 212 218 221 226 235 239 238 237 238 238 240 244 248 251 255 256 257 258 263 267 270 270 272 276 277 273 268 268 271 274 277 280 281 280 279 280 279 274 271 273 273 272 274 280 282 281 281 285
130 141 147 149 155 163 169 174 184 191 190 185 180 179 180 179 176 174 175 177 179 181 182 181 179 180 185 189 194 200 204 203 201 199 198 197 200 207 216 226 230 231 235 239 242 242 244 245 244 245 248 251 254 256 256 256 259 261 262 264 269 275 279 277 271 268 267 269 272 275 276 277 277 276 274 273 273 274 274 273 273 277 282 283 280 278 279
145 151 152 152 157 166 174 182 191 198 202 201 195 189 185 180 177 178 181 180 179 182 184 184 184 187 192 195 199 204 205 203 203 203 202 202 204 208 218 233 240 241 240 243 245 247 249 249 248 250 252 252 253 254 256 257 257 257 259 265 273 280 283 281 276 271 268 268 271 273 273 273 275 274 269 267 271 277 279 277 276 278 281 281 277 276 276
140 143 145 150 159 167 173 180 187 194 202 207 205 199 191 187 186 187 186 184 182 185 189 193 196 200 201 200 203 206 207 207 209 211 212 214 215 213 220 239 252 254 251 250 250 250 251 252 252 253 253 253 253 256 260 261 257 256 260 268 276 282 284 282 279 278 276 273 273 272 270 270 273 273 267 263 268 276 280 280 278 278 279 278 276 276 277
146 146 146 153 164 172 175 179 183 191 200 206 205 202 198 194 192 189 187 184 185 190 195 198 201 205 205 204 204 206 209 211 213 215 220 228 231 231 236 250 264 268 264 261 257 254 254 255 255 254 254 255 255 258 261 260 258 258 262 268 276 283 284 281 280 281 279 273 269 268 268 268 271 271 267 263 264 270 276 280 280 280 281 282 280 279 279
151 153 154 160 167 172 175 178 183 192 203 207 204 201 198 195 192 191 190 189 191 195 200 202 203 205 207 207 207 209 212 214 214 216 222 231 239 244 248 257 266 269 268 266 265 262 258 257 257 256 256 254 253 255 257 257 258 261 266 271 278 283 282 278 276 277 275 270 267 269 271 273 273 272 270 266 264 266 271 276 279 282 284 286 285 283 281
155 157 157 159 165 169 173 176 183 196 209 207 198 196 197 196 195 196 197 196 197 201 205 208 209 209 210 212 215 220 223 223 222 221 223 229 244 255 258 260 262 262 260 260 261 260 258 256 257 258 257 255 253 254 256 257 260 264 268 272 277 280 279 275 274 276 277 276 273 273 275 277 278 277 274 270 267 266 268 273 278 281 284 287 288 288 285
157 158 158 160 165 172 178 183 189 199 202 190 184 193 200 199 198 200 203 205 207 210 215 218 219 219 220 223 227 230 232 234 236 239 243 248 257 263 264 263 263 264 261 258 257 256 255 255 258 261 261 258 255 255 256 258 259 262 265 270 274 278 278 277 275 276 278 279 278 277 277 277 279 282 281 277 272 270 270 272 275 279 281 283 286 289 290
158 160 165 168 169 170 172 172 169 168 168 171 184 200 204 203 202 205 208 213 218 222 224 226 228 228 230 232 234 236 239 242 246 252 257 260 262 262 261 260 264 268 267 262 260 259 258 258 260 262 262 259 255 252 253 256 257 259 264 270 274 276 277 278 278 279 281 283 283 282 280 279 279 281 283 281 277 273 271 271 273 276 279 282 284 287 290
164 168 172 173 169 164 161 159 158 163 175 191 208 212 207 203 204 207 211 217 224 228 231 233 236 236 236 237 240 246 249 250 252 259 266 268 266 264 263 264 266 267 265 262 262 261 259 258 260 262 263 261 256 252 252 256 259 262 265 269 271 274 277 279 281 283 285 285 285 284 284 283 281 280 279 280 279 276 274 272 273 275 278 281 283 286 290
170 170 169 168 166 162 159 159 163 175 193 211 220 216 208 201 199 203 210 216 223 229 234 238 241 242 242 242 245 249 253 252 253 260 272 278 278 276 276 276 274 271 267 265 264 262 258 257 259 262 264 264 262 258 257 259 262 263 264 266 268 272 276 280 283 285 284 283 282 282 284 284 284 282 279 278 278 277 276 275 275 277 278 281 283 287 291
167 165 166 168 168 167 167 171 177 185 196 206 208 204 198 191 188 196 207 213 218 225 233 239 242 243 242 241 243 248 254 257 260 265 273 276 274 273 275 277 277 277 274 270 267 265 262 260 260 263 267 269 267 263 261 261 263 264 265 266 269 273 277 280 283 285 285 284 284 285 286 286 286 285 282 279 278 277 278 278 279 280 282 283 286 290 295
174 175 175 175 176 176 178 180 179 181 193 203 199 192 188 186 188 194 201 204 208 218 227 235 240 241 241 243 249 256 260 263 265 266 267 268 269 270 273 275 276 276 274 271 268 267 265 263 263 264 267 270 271 269 267 267 266 266 267 270 274 277 279 281 283 285 286 287 287 288 288 289 289 287 285 283 280 278 278 280 282 283 285 288 291 293 295
181 180 175 171 173 175 174 170 170 179 195 200 194 185 180 180 185 191 197 204 212 220 227 234 241 246 248 251 256 259 261 261 262 263 264 267 270 273 275 277 277 275 273 271 269 267 266 265 265 265 267 270 273 276 276 275 274 273 274 277 279 281 282 284 286 288 290 291 291 290 290 291 291 290 288 286 283 279 278 281 285 287 289 292 293 291 289